Location: Casilda
(33.0440°S, 61.1680°W)
Time: 12:07:35
(UTC-03:00)

ISS - Pass Details

Date: 24 July 2021
Orbit: 419 x 421 km, 51.6° (Epoch: 04 August)

Event Time Altitude Azimuth Distance (km) Brightness Sun altitude
Exits shadow 07:08:00 12° 216° (SW) 1,402 -1.6 -11.3°
Maximum altitude 07:08:23 12° 209° (SSW) 1,394 -1.5 -11.2°
Drops below altitude 10° 07:09:51 10° 183° (S) 1,526 -1.1 -10.9°
Sets 07:13:03 0° 151° (SSE) 2,398 0.3 -10.3°
